Time,TemperatureF,DewpointF,PressureIn,WindDirection,WindDirectionDegrees,WindSpeedMPH,WindSpeedGustMPH,Humidity,HourlyPrecipIn,Conditions,Clouds,dailyrainin,SolarRadiationWatts/m^2,SoftwareType,DateUTC
2013-06-01 00:01:00,50.0,49.0,-100.00,North,352,0.0,0.0,97,0.00,,,0.85,0.000000,,2013-06-01 06:01:00,
2013-06-01 00:12:00,50.0,49.0,-100.00,North,352,0.0,0.0,97,0.00,,,0.85,0.000000,,2013-06-01 06:12:00,
2013-06-01 00:22:00,50.0,49.0,-100.00,North,352,0.0,0.0,97,0.00,,,0.85,0.000000,,2013-06-01 06:22:00,
2013-06-01 00:52:00,48.0,48.0,-100.00,NW,304,0.0,0.0,99,0.00,,,0.85,0.000000,,2013-06-01 06:52:00,
2013-06-01 01:01:00,48.0,48.0,-100.00,NW,304,0.0,0.0,99,0.00,,,0.85,0.000000,,2013-06-01 07:01:00,
2013-06-01 01:11:00,48.0,48.0,-100.00,NW,304,0.0,0.0,99,0.00,,,0.85,0.000000,,2013-06-01 07:11:00,
2013-06-01 01:22:00,48.0,48.0,-100.00,NW,304,0.0,0.0,99,0.00,,,0.85,0.000000,,2013-06-01 07:22:00,
2013-06-01 01:42:00,45.0,45.0,-100.00,WNW,303,0.0,0.0,99,0.00,,,0.84,0.000000,,2013-06-01 07:42:00,
2013-06-01 01:52:00,45.0,45.0,-100.00,WNW,303,0.0,0.0,99,0.00,,,0.84,0.000000,,2013-06-01 07:52:00,
2013-06-01 02:02:00,45.0,45.0,-100.00,WNW,303,0.0,0.0,99,0.00,,,0.84,0.000000,,2013-06-01 08:02:00,
2013-06-01 02:11:00,45.0,45.0,-100.00,WNW,303,0.0,0.0,99,0.00,,,0.84,0.000000,,2013-06-01 08:11:00,
2013-06-01 02:21:00,45.0,45.0,-100.00,WNW,303,0.0,0.0,99,0.00,,,0.84,0.000000,,2013-06-01 08:21:00,
2013-06-01 02:52:00,44.0,43.0,-100.00,WNW,303,0.0,0.0,98,0.00,,,0.82,0.000000,,2013-06-01 08:52:00,
2013-06-01 03:01:00,44.0,43.0,-100.00,WNW,303,0.0,0.0,98,0.00,,,0.82,0.000000,,2013-06-01 09:01:00,
2013-06-01 03:12:00,44.0,43.0,-100.00,WNW,303,0.0,0.0,98,0.00,,,0.82,0.000000,,2013-06-01 09:12:00,
2013-06-01 03:21:00,44.0,43.0,-100.00,WNW,303,0.0,0.0,98,0.00,,,0.82,0.000000,,2013-06-01 09:21:00,
2013-06-01 03:53:00,43.0,43.0,-100.00,WNW,295,0.0,0.0,99,0.00,,,0.71,0.000000,,2013-06-01 09:53:00,
2013-06-01 04:02:00,43.0,43.0,-100.00,WNW,295,0.0,0.0,99,0.00,,,0.71,0.000000,,2013-06-01 10:02:00,
2013-06-01 04:13:00,43.0,43.0,-100.00,WNW,295,0.0,0.0,99,0.00,,,0.71,0.000000,,2013-06-01 10:13:00,
2013-06-01 04:22:00,43.0,43.0,-100.00,WNW,295,0.0,0.0,99,0.00,,,0.71,0.000000,,2013-06-01 10:22:00,
2013-06-01 04:52:00,40.0,39.0,-100.00,WNW,303,0.0,0.0,98,0.00,,,0.63,0.000000,,2013-06-01 10:52:00,
2013-06-01 05:02:00,40.0,39.0,-100.00,WNW,303,0.0,0.0,98,0.00,,,0.63,0.000000,,2013-06-01 11:02:00,
2013-06-01 05:11:00,40.0,39.0,-100.00,WNW,303,0.0,0.0,98,0.00,,,0.63,0.000000,,2013-06-01 11:11:00,
2013-06-01 05:21:00,40.0,39.0,-100.00,WNW,303,0.0,0.0,98,0.00,,,0.63,0.000000,,2013-06-01 11:21:00,
2013-06-01 05:52:00,41.0,40.0,-100.00,WNW,301,0.0,0.0,98,0.00,,,0.59,4.000000,,2013-06-01 11:52:00,
2013-06-01 06:01:00,41.0,40.0,-100.00,WNW,301,0.0,0.0,98,0.00,,,0.59,4.000000,,2013-06-01 12:01:00,
2013-06-01 06:12:00,41.0,40.0,-100.00,WNW,301,0.0,0.0,98,0.00,,,0.59,4.000000,,2013-06-01 12:12:00,
2013-06-01 06:21:00,41.0,40.0,-100.00,WNW,301,0.0,0.0,98,0.00,,,0.59,4.000000,,2013-06-01 12:21:00,
2013-06-01 06:52:00,45.0,42.0,-100.00,WNW,302,0.0,0.0,90,0.00,,,0.54,120.000000,,2013-06-01 12:52:00,
2013-06-01 07:01:00,45.0,42.0,-100.00,WNW,302,0.0,0.0,90,0.00,,,0.54,120.000000,,2013-06-01 13:01:00,
2013-06-01 07:11:00,45.0,42.0,-100.00,WNW,302,0.0,0.0,90,0.00,,,0.54,120.000000,,2013-06-01 13:11:00,
2013-06-01 07:22:00,45.0,42.0,-100.00,WNW,302,0.0,0.0,90,0.00,,,0.54,120.000000,,2013-06-01 13:22:00,
2013-06-01 07:42:00,50.0,43.0,-100.00,North,350,0.0,0.0,76,0.00,,,0.45,316.000000,,2013-06-01 13:42:00,
2013-06-01 07:52:00,50.0,43.0,-100.00,North,350,0.0,0.0,76,0.00,,,0.45,316.000000,,2013-06-01 13:52:00,
2013-06-01 08:02:00,50.0,43.0,-100.00,North,350,0.0,0.0,76,0.00,,,0.45,316.000000,,2013-06-01 14:02:00,
2013-06-01 08:11:00,50.0,43.0,-100.00,North,350,0.0,0.0,76,0.00,,,0.45,316.000000,,2013-06-01 14:11:00,
2013-06-01 08:21:00,50.0,43.0,-100.00,North,350,0.0,0.0,76,0.00,,,0.45,316.000000,,2013-06-01 14:21:00,
2013-06-01 08:42:00,55.0,46.0,-100.00,North,356,0.0,0.0,71,0.00,,,0.42,479.000000,,2013-06-01 14:42:00,
2013-06-01 08:52:00,55.0,46.0,-100.00,North,356,0.0,0.0,71,0.00,,,0.42,479.000000,,2013-06-01 14:52:00,
2013-06-01 09:02:00,55.0,46.0,-100.00,North,356,0.0,0.0,71,0.00,,,0.42,479.000000,,2013-06-01 15:02:00,
2013-06-01 09:11:00,55.0,46.0,-100.00,North,356,0.0,0.0,71,0.00,,,0.42,479.000000,,2013-06-01 15:11:00,
2013-06-01 09:21:00,55.0,46.0,-100.00,North,356,0.0,0.0,71,0.00,,,0.42,479.000000,,2013-06-01 15:21:00,
2013-06-01 09:54:00,59.0,46.0,-100.00,NW,319,0.0,0.0,63,0.00,,,0.36,734.000000,,2013-06-01 15:54:00,
2013-06-01 10:03:00,59.0,46.0,-100.00,NW,319,0.0,0.0,63,0.00,,,0.36,734.000000,,2013-06-01 16:03:00,
2013-06-01 10:12:00,59.0,46.0,-100.00,NW,319,0.0,0.0,63,0.00,,,0.36,734.000000,,2013-06-01 16:12:00,
2013-06-01 10:23:00,59.0,46.0,-100.00,NW,319,0.0,0.0,63,0.00,,,0.36,734.000000,,2013-06-01 16:23:00,
2013-06-01 10:52:00,57.0,44.0,-100.00,NNW,348,0.0,0.0,61,0.00,,,0.28,670.000000,,2013-06-01 16:52:00,
2013-06-01 11:02:00,57.0,44.0,-100.00,NNW,348,0.0,0.0,61,0.00,,,0.28,670.000000,,2013-06-01 17:02:00,
2013-06-01 11:12:00,57.0,44.0,-100.00,NNW,348,0.0,0.0,61,0.00,,,0.28,670.000000,,2013-06-01 17:12:00,
2013-06-01 11:22:00,57.0,44.0,-100.00,NNW,348,0.0,0.0,61,0.00,,,0.28,670.000000,,2013-06-01 17:22:00,
2013-06-01 11:43:00,59.0,42.0,-100.00,NNW,330,0.0,0.0,54,0.00,,,0.27,758.000000,,2013-06-01 17:43:00,
2013-06-01 11:52:00,59.0,42.0,-100.00,NNW,330,0.0,0.0,54,0.00,,,0.27,758.000000,,2013-06-01 17:52:00,
2013-06-01 12:01:00,59.0,42.0,-100.00,NNW,330,0.0,0.0,54,0.00,,,0.27,758.000000,,2013-06-01 18:01:00,
2013-06-01 12:12:00,59.0,42.0,-100.00,NNW,330,0.0,0.0,54,0.00,,,0.27,758.000000,,2013-06-01 18:12:00,
2013-06-01 12:21:00,59.0,42.0,-100.00,NNW,330,0.0,0.0,54,0.00,,,0.27,758.000000,,2013-06-01 18:21:00,
2013-06-01 12:52:00,61.0,43.0,-100.00,NW,320,0.0,0.0,51,0.00,,,0.20,837.000000,,2013-06-01 18:52:00,
2013-06-01 13:02:00,61.0,43.0,-100.00,NW,320,0.0,0.0,51,0.00,,,0.20,837.000000,,2013-06-01 19:02:00,
2013-06-01 13:11:00,61.0,43.0,-100.00,NW,320,0.0,0.0,51,0.00,,,0.20,837.000000,,2013-06-01 19:11:00,
2013-06-01 13:21:00,61.0,43.0,-100.00,NW,320,0.0,0.0,51,0.00,,,0.20,837.000000,,2013-06-01 19:21:00,
2013-06-01 13:42:00,64.0,39.0,-100.00,NW,320,0.0,0.0,40,0.00,,,0.17,917.000000,,2013-06-01 19:42:00,
2013-06-01 13:52:00,64.0,39.0,-100.00,NW,320,0.0,0.0,40,0.00,,,0.17,917.000000,,2013-06-01 19:52:00,
2013-06-01 14:02:00,64.0,39.0,-100.00,NW,320,0.0,0.0,40,0.00,,,0.17,917.000000,,2013-06-01 20:02:00,
2013-06-01 14:12:00,64.0,39.0,-100.00,NW,320,0.0,0.0,40,0.00,,,0.17,917.000000,,2013-06-01 20:12:00,
2013-06-01 14:21:00,64.0,39.0,-100.00,NW,320,0.0,0.0,40,0.00,,,0.17,917.000000,,2013-06-01 20:21:00,
2013-06-01 14:52:00,62.0,40.0,-100.00,North,357,0.0,0.0,44,0.00,,,0.15,877.000000,,2013-06-01 20:52:00,
2013-06-01 15:01:00,62.0,40.0,-100.00,North,357,0.0,0.0,44,0.00,,,0.15,877.000000,,2013-06-01 21:01:00,
2013-06-01 15:11:00,62.0,40.0,-100.00,North,357,0.0,0.0,44,0.00,,,0.15,877.000000,,2013-06-01 21:11:00,
2013-06-01 15:21:00,62.0,40.0,-100.00,North,357,0.0,0.0,44,0.00,,,0.15,877.000000,,2013-06-01 21:21:00,
2013-06-01 15:43:00,65.0,41.0,-100.00,North,4,0.0,0.0,42,0.00,,,0.10,830.000000,,2013-06-01 21:43:00,
2013-06-01 15:53:00,65.0,41.0,-100.00,North,4,0.0,0.0,42,0.00,,,0.10,830.000000,,2013-06-01 21:53:00,
2013-06-01 16:03:00,65.0,41.0,-100.00,North,4,0.0,0.0,42,0.00,,,0.10,830.000000,,2013-06-01 22:03:00,
2013-06-01 16:12:00,65.0,41.0,-100.00,North,4,0.0,0.0,42,0.00,,,0.10,830.000000,,2013-06-01 22:12:00,
2013-06-01 16:23:00,65.0,41.0,-100.00,North,4,0.0,0.0,42,0.00,,,0.10,830.000000,,2013-06-01 22:23:00,
2013-06-01 16:53:00,66.0,40.0,-100.00,NNW,333,0.0,0.0,39,0.00,,,0.05,986.000000,,2013-06-01 22:53:00,
2013-06-01 17:02:00,66.0,40.0,-100.00,NNW,333,0.0,0.0,39,0.00,,,0.05,986.000000,,2013-06-01 23:02:00,
2013-06-01 17:11:00,66.0,40.0,-100.00,NNW,333,0.0,0.0,39,0.00,,,0.05,986.000000,,2013-06-01 23:11:00,
2013-06-01 17:22:00,66.0,40.0,-100.00,NNW,333,0.0,0.0,39,0.00,,,0.05,986.000000,,2013-06-01 23:22:00,
2013-06-01 17:52:00,69.0,39.0,-100.00,NNW,332,0.0,0.0,34,0.00,,,0.04,704.000000,,2013-06-01 23:52:00,
2013-06-01 18:02:00,69.0,39.0,-100.00,NNW,332,0.0,0.0,34,0.00,,,0.04,704.000000,,2013-06-02 00:02:00,
2013-06-01 18:11:00,69.0,39.0,-100.00,NNW,332,0.0,0.0,34,0.00,,,0.04,704.000000,,2013-06-02 00:11:00,
2013-06-01 18:21:00,69.0,39.0,-100.00,NNW,332,0.0,0.0,34,0.00,,,0.04,704.000000,,2013-06-02 00:21:00,
2013-06-01 18:52:00,67.0,38.0,-100.00,NE,35,0.0,0.0,34,0.00,,,0.03,532.000000,,2013-06-02 00:52:00,
2013-06-01 19:01:00,67.0,38.0,-100.00,NE,35,0.0,0.0,34,0.00,,,0.03,532.000000,,2013-06-02 01:01:00,
2013-06-01 19:11:00,67.0,38.0,-100.00,NE,35,0.0,0.0,34,0.00,,,0.03,532.000000,,2013-06-02 01:11:00,
2013-06-01 19:21:00,67.0,38.0,-100.00,NE,35,0.0,0.0,34,0.00,,,0.03,532.000000,,2013-06-02 01:21:00,
2013-06-01 19:52:00,65.0,39.0,-100.00,NE,54,0.0,0.0,38,0.00,,,0.01,42.000000,,2013-06-02 01:52:00,
2013-06-01 20:01:00,65.0,39.0,-100.00,NE,54,0.0,0.0,38,0.00,,,0.01,42.000000,,2013-06-02 02:01:00,
2013-06-01 20:12:00,65.0,39.0,-100.00,NE,54,0.0,0.0,38,0.00,,,0.01,42.000000,,2013-06-02 02:12:00,
2013-06-01 20:21:00,65.0,39.0,-100.00,NE,54,0.0,0.0,38,0.00,,,0.01,42.000000,,2013-06-02 02:21:00,
2013-06-01 20:52:00,54.0,40.0,-100.00,NE,40,0.0,0.0,59,0.00,,,0.00,40.000000,,2013-06-02 02:52:00,
2013-06-01 21:02:00,54.0,40.0,-100.00,NE,40,0.0,0.0,59,0.00,,,0.00,40.000000,,2013-06-02 03:02:00,
2013-06-01 21:11:00,54.0,40.0,-100.00,NE,40,0.0,0.0,59,0.00,,,0.00,40.000000,,2013-06-02 03:11:00,
2013-06-01 21:21:00,54.0,40.0,-100.00,NE,40,0.0,0.0,59,0.00,,,0.00,40.000000,,2013-06-02 03:21:00,
2013-06-01 21:53:00,51.0,40.0,-100.00,SSE,159,0.0,0.0,67,0.00,,,0.00,3.000000,,2013-06-02 03:53:00,
2013-06-01 22:02:00,51.0,-99.9,-100.00,SSE,159,0.0,0.0,67,0.00,,,0.00,3.000000,,2013-06-02 04:02:00,
2013-06-01 22:13:00,51.0,40.0,-100.00,SSE,159,0.0,0.0,67,0.00,,,0.00,3.000000,,2013-06-02 04:13:00,
2013-06-01 22:23:00,51.0,40.0,-100.00,SSE,159,0.0,0.0,67,0.00,,,0.00,3.000000,,2013-06-02 04:23:00,
2013-06-01 22:53:00,49.0,41.0,-100.00,SSE,159,0.0,0.0,74,0.00,,,0.00,0.000000,,2013-06-02 04:53:00,
2013-06-01 23:02:00,49.0,41.0,-100.00,SSE,159,0.0,0.0,74,0.00,,,0.00,0.000000,,2013-06-02 05:02:00,
2013-06-01 23:12:00,49.0,41.0,-100.00,SSE,159,0.0,0.0,74,0.00,,,0.00,0.000000,,2013-06-02 05:12:00,
2013-06-01 23:22:00,49.0,41.0,-100.00,SSE,159,0.0,0.0,74,0.00,,,0.00,0.000000,,2013-06-02 05:22:00,
2013-06-01 23:52:00,45.0,40.0,-100.00,WSW,237,0.0,0.0,81,0.00,,,0.00,0.000000,,2013-06-02 05:52:00,